PEGASUS DEB, 24239

Orbit data source: Space-Track

PEGASUS DEB, 24239 is space debris in LEO originally from a launch on Thu, 19 May 1994 UTC launched from the Air Force Western Test Range (AFWTR). Debris objects in space refer to the collection of defunct objects orbiting the Earth. Examples of debris include non-operational satellites, rocket bodies, and fragments generated from explosions, collisions, or faulty payload assembly.

Loading next visibility...
Identifier
24239, 1994-029LN
Orbit
LEO
Country
Flag of USUS
Related business
Manufacturer
Unknown
Mission
Spacecraft
Bus & Motor
Unknown
Mass
Unknown
Launch date (UTC)
1994-05-19 (32 years ago)
Launch vehicle
Unknown
Launch site
Air Force Western Test Range (AFWTR)
Object type
Payload
Rocket body
Debris
Shape & HBR
Unknown shape, 0.1 m
Radar Cross Section
Medium (>0.1 m² and <1 m²)

Expand to show TLE details & history
Last TLE update: 3 days ago

TLE from 3 days ago
0 PEGASUS DEB
1 24239U 94029LN  26171.42406235  .00005447  00000-0  59003-3 0  9997
2 24239  81.5099 156.7425 0138654 196.2933 163.3801 14.81204139576748
Epoch: 2026-06-20T10:10Z
TLE epoch observation values (Epoch: 2026-06-20T10:10:38.987Z)
Latitude
0.00002°
Longitude
95.44117°
Altitude
721.71 km
Speed
7.445 km/s
True Right ascension
10h 26m 58s
True Declination
0° 00' 00"
Sunlit
Object was in daylight at epoch
Visualization orbit readout
Latitude
Unknown
Longitude
Unknown
Altitude
Unknown
Speed
Unknown
Apparent Right ascension
Unknown
Apparent Declination
Unknown
Sunlit
N/A
Visualization observer readout
Local Sidereal Time
12:51:29
Azimuth
Unknown
Elevation
Unknown
Doppler factor
Unknown
Orbital elements
Apogee altitude
719.66 km
Perigee altitude
525.524 km
Semi-major axis
7,000.729 km
Eccentricity
0.01387
Inclination
81.5099°
RAAN
156.7425°
Arg. of periapsis
196.2933°
True anomaly
163.82711°
Mean anomaly
163.3801°
Eccentric anomaly
163.60434°
Mean motion
3.70534 °/min
Orbital period
97.16 mins
BSTAR
0.00059003
Loading maneuver chart data...
Computing Atmospheric mass density...

Documentation

Showing up to 5 results
|